"Pseudo-MPEC" for 2010 WK1 = RW28E3B = unknown sat

Created 2017 Mar 8 15:49:49 UT using Find_Orb

Astrometry:
     RW28E3B  C2010 11 27.45514 04 22 45.88 +21 28 28.2                 NEOCP703
     RW28E3B  C2010 11 27.46218 04 25 08.67 +21 15 56.3                 NEOCP703
     RW28E3B  C2010 11 27.46918 04 27 32.33 +21 03 08.1                 NEOCP703
     RW28E3B  C2010 11 27.48990 04 34 45.66 +20 23 32.0          16.1 V NEOCP703
     RW28E3B  C2010 11 27.49016 04 34 51.16 +20 23 00.5          16.2 V NEOCP703
     RW28E3B  C2010 11 27.49042 04 34 56.78 +20 22 29.5          16.3 V NEOCP703
     RW28E3B  C2010 11 27.49071 04 35 03.12 +20 21 53.6          15.9 V NEOCP703
     RW28E3B  C2010 11 27.49179 04 35 26.01 +20 19 45.8          16.2 V NEOCP703
     RW28E3B  C2010 11 27.49204 04 35 31.32 +20 19 16.3          16.1 V NEOCP703
     RW28E3B  C2010 11 27.49233 04 35 37.57 +20 18 41.4          16.2 V NEOCP703
     RW28E3B  C2010 11 27.49262 04 35 43.78 +20 18 06.4          16.1 V NEOCP703
     RW28E3B  C2010 11 27.52723 04 48 25.12 +19 05 01.7          16.1 V NEOCP703
     RW28E3B  C2010 11 27.52782 04 48 38.66 +19 03 41.4          15.9 V NEOCP703
     RW28E3B  C2010 11 27.52811 04 48 45.28 +19 03 02.6          16.2 V NEOCP703
     RW28E3B  C2010 11 28.27577 03 24 38.98 +25 06 01.8          16.3 V      703
     RW28E3B  C2010 11 28.27604 03 24 44.56 +25 05 52.0          16.4 V      703
     RW28E3B  C2010 11 28.27627 03 24 49.42 +25 05 41.9          16.4 V      703
     RW28E3B  C2010 11 28.27653 03 24 55.08 +25 05 30.8          16.2 V      703

Station data:
(703) Catalina Sky Survey (N32.417003 W110.732640)  US/Arizona.  Observers
   E. J. Christensen, A. R. Gibbs, A. D. Grauer, R. E. Hill, J. A. Johnson,
   R. A. Kowalski, S. M. Larson, F. C. Shelly. 0.68 m Schmidt + CCD.

Orbital elements:  2010 WK1 = RW28E3B = unknown sat
   Perigee 2010 Nov 26.902265 +/- 0.000213 TT = 21:39:15 (JD 2455527.402265)
Epoch 2010 Nov 27.0 TT = JDT 2455527.5                        Gray
M  35.2574122 +/- 0.07              (J2000 equatorial)
n 360.7467470695 +/- 0.0242         Peri.  293.0313986 +/- 0.016
a 42182.782505 +/- 1.89             Node   308.7605283 +/- 0.00054
e   0.689183233 +/- 3.46e-5         Incl.   26.3444962 +/- 0.0008
P1436.99m/0.998d           H 32.5   G  0.15   U 10.2
q 13111.116048 +/- 1.17    Q 71254.448963 +/- 4.29
From 18 observations 2010 Nov. 27-28 (19.7 hr); mean residual 1".426
Residuals in arcseconds: 
101127 703 4.95+ 1.59-    101127 703 .768+ .781-    101127 703 1.86+ .903-
101127 703 .452- .359+    101127 703 .775- .158+    101127 703 2.20+ .762-
101127 703 .082- .450-    101127 703 1.05- .523+    101128 703 .790- .063-
101127 703 2.55- 1.36+    101127 703 .139- .297+    101128 703 1.46- .881+
101127 703 2.92- .730+    101127 703 .171+ 3.1m+    101128 703 .556- .041-
101127 703 1.63- .627+    101127 703 8.8m+ .287+    101128 703 2.75+ .738-

Ephemerides (geocentric):
Date (UTC) HH   RA              Dec         delta   r     elong  mag " sig PA
---- -- -- --  ------------   ------------  ------ ------ -----  --- ---- ---
2010 11 28 00  23 58 56.464   +21 02 54.51   34317 .98678 120.9 16.4  168  75
2010 11 28 01  00 54 28.037   +24 08 52.36   42589 .98686 134.0 16.5   94  80
2010 11 28 02  01 34 21.400   +25 32 39.23   49494 .98692 143.1 16.6   58  85
2010 11 28 03  02 05 39.272   +26 09 14.34   55229 .98697 150.1 16.6   38  89
2010 11 28 04  02 31 41.003   +26 20 12.66   59946 .98700 155.9 16.6   25  92
2010 11 28 05  02 54 15.544   +26 15 26.60   63754 .98703 160.8 16.6   17  94
2010 11 28 06  03 14 29.086   +25 59 53.82   66730 .98706 165.3 16.6   12  97
2010 11 28 07  03 33 05.416   +25 36 10.18   68931 .98707 169.4 16.5  8.8  98
2010 11 28 08  03 50 35.795   +25 05 34.63   70392 .98708 173.1 16.4  6.8  99
2010 11 28 09  04 07 24.323   +24 28 38.79   71138 .98708 176.3 Sha   5.8  98
2010 11 28 10  04 23 51.168   +23 45 20.17   71180 .98707 176.9 Sha   6.0  98
2010 11 28 11  04 40 14.818   +22 55 06.64   70519 .98706 174.2 16.3  7.2  99
2010 11 28 12  04 56 53.976   +21 56 54.49   69144 .98704 170.6 16.4    9 100
2010 11 28 13  05 14 09.571   +20 49 00.06   67034 .98701 166.6 16.5   13 102
2010 11 28 14  05 32 27.460   +19 28 42.07   64153 .98698 162.2 16.6   19 104
2010 11 28 15  05 52 22.756   +17 51 47.39   60448 .98693 157.3 16.6   28 107
2010 11 28 16  06 14 47.831   +15 51 23.13   55845 .98688 151.6 16.6   41 109
2010 11 28 17  06 41 09.131   +13 15 31.22   50240 .98682 144.8 16.6   63 111
2010 11 28 18  07 14 08.149   +09 41 21.36   43487 .98675 136.0 16.5  101 113
2010 11 28 19  07 59 43.297   +04 19 12.15   35391 .98667 123.6 16.4  178 115
2010 11 28 20  09 15 23.408   -04 58 56.57   25793 .98656 102.6 16.4  381 115
2010 11 28 21  12 23 08.169   -22 34 05.46   15684 .98646  54.1 17?? 1126 104
2010 11 28 22  19 24 50.772   -08 27 18.56   15117 .98644  46.7 18?? 1238  65
2010 11 28 23  22 35 01.671   +13 56 06.16   25071 .98653  98.8 16.4  425  68
2010 11 29 00  00 02 25.481   +21 17 34.71   34772 .98662 120.8 16.4  200  75
2010 11 29 01  00 56 53.224   +24 15 31.44   42969 .98669 133.7 16.5  116  80
2010 11 29 02  01 36 13.673   +25 35 44.87   49810 .98675 142.6 16.6   75  85
2010 11 29 03  02 07 12.078   +26 10 25.28   55490 .98680 149.5 16.7   52  88
2010 11 29 04  02 33 01.284   +26 20 12.65   60159 .98684 155.3 16.7   37  91
2010 11 29 05  02 55 27.336   +26 14 37.48   63924 .98687 160.2 16.6   28  94
2010 11 29 06  03 15 34.959   +25 58 27.29   66860 .98689 164.7 16.6   22  96
2010 11 29 07  03 34 07.137   +25 34 12.64   69023 .98690 168.7 16.5   18  97
2010 11 29 08  03 51 34.676   +25 03 09.38   70447 .98691 172.5 16.4   15  98
2010 11 29 09  04 08 21.413   +24 25 47.01   71158 .98691 176.0 Sha    14  99
2010 11 29 10  04 24 47.385   +23 42 01.40   71165 .98691 177.5 Sha    14 100
2010 11 29 11  04 41 11.047   +22 51 18.83   70468 .98689 175.0 16.3   16 101
2010 11 29 12  04 57 51.157   +21 52 33.79   69057 .98687 171.4 16.4   19 103
2010 11 29 13  05 15 08.817   +20 44 00.19   66910 .98685 167.3 16.5   23 104
2010 11 29 14  05 33 30.220   +19 22 53.11   63988 .98681 162.9 16.6   30 106
2010 11 29 15  05 53 31.102   +17 44 53.44   60241 .98677 158.0 16.6   41 108
2010 11 29 16  06 16 05.026   +15 42 57.43   55590 .98672 152.3 16.6   56 110
2010 11 29 17  06 42 40.898   +13 04 45.32   49931 .98666 145.4 16.5   82 112
2010 11 29 18  07 16 06.022   +09 26 37.67   43115 .98659 136.5 16.5  128 114
2010 11 29 19  08 02 35.770   +03 56 42.27   34946 .98650 123.7 16.4  221 115
2010 11 29 20  09 20 49.340   -05 39 41.23   25273 .98640 102.0 16.4  470 115
2010 11 29 21  12 40 27.095   -23 30 21.24   15269 .98629  50.9 18?? 1385 102
2010 11 29 22  19 40 09.998   -06 38 09.71   15518 .98628  50.0 18?? 1362  65
2010 11 29 23  22 40 59.020   +14 32 58.77   25593 .98637  99.4 16.5  476  68
2010 11 30 00  00 05 53.109   +21 31 57.03   35222 .98646 120.7 16.5  231  75
2010 11 30 01  00 59 19.067   +24 22 08.48   43347 .98653 133.3 16.6  137  80